Lefor, ND

10:04 PM MDT on July 25, 2016 (GMT -0600)
Dickinson Municipal

Weather History for KDIK - November, 2012

Change the Weather History Date:

Wednesday, November 7, 2012

  Actual Average Record
Temperature  
Mean Temperature 47 °F 34 °F  
Max Temperature 66 °F 45 °F 80 °F (1999)
Min Temperature 28 °F 23 °F -10 °F (1925)
Degree Days  
Heating Degree Days 18 31  
Month to date heating degree days 175 208  
Since 1 July heating degree days 1112 1219  
Cooling Degree Days 0 0  
Month to date cooling degree days 0 0  
Year to date cooling degree days 591 419  
Moisture  
Dew Point 29 °F    
Average Humidity 54    
Maximum Humidity 79    
Minimum Humidity 28    
Precipitation  
Precipitation 0.00 in 0.03 in 0.65 in (1915)
Month to date precipitation 0.13 0.18  
Year to date precipitation 10.06 15.17  
Sea Level Pressure  
Sea Level Pressure 29.82 in    
Wind  
Wind Speed 12 mph (SSW)    
Max Wind Speed 25 mph    
Max Gust Speed 32 mph    
Visibility 10 miles    
Events      
T = Trace of Precipitation, MM = Missing Value Source: NWS Daily Summary

Daily Weather History Graph

Daily Weather History Graph

Search for Another Location

Airport or City:

Trip Planner

Search our weather history database for the weather conditions in past years. The results will help you decide how hot, cold, wet, or windy it might be!

Date:

Astronomy

Nov. 07, 2012 Rise Set
Actual Time 6:43 AM MST 4:26 PM MST
Civil Twilight 6:10 AM MST 4:58 PM MST
Nautical Twilight 5:34 AM MST 5:34 PM MST
Astronomical Twilight 4:59 AM MST 6:10 PM MST
Moon No Moon Rise 12:59 PM MST (11/7)
Length of Visible Light 10h 47m
Length of Day
9h 43m
Last Quarter, 42% of the Moon is Illuminated
Nov 7
Last Quarter
Nov 13
New
Nov 20
First Quarter
Nov 28
Full
Dec 6
Last Quarter

Hourly Weather History & Observations

Time (MST) Temp. Windchill Dew Point Humidity Pressure Visibility Wind Dir Wind Speed Gust Speed Precip Events Conditions
12:56 AM 28.9 °F 21.9 °F 23.0 °F 78% 30.06 in 10.0 mi SSE 6.9 mph - N/A   Clear
1:56 AM 30.9 °F 22.8 °F 24.1 °F 76% 30.02 in 10.0 mi South 9.2 mph - N/A   Partly Cloudy
2:56 AM 32.0 °F 23.6 °F 25.0 °F 75% 29.99 in 10.0 mi South 10.4 mph - N/A   Clear
3:56 AM 34.0 °F 25.0 °F 24.1 °F 67% 29.97 in 10.0 mi SSE 12.7 mph - N/A   Clear
4:56 AM 35.1 °F 25.2 °F 23.0 °F 61% 29.94 in 10.0 mi SSE 16.1 mph - N/A   Clear
5:56 AM 35.1 °F 25.2 °F 24.1 °F 64% 29.93 in 10.0 mi South 16.1 mph 24.2 mph N/A   Clear
6:56 AM 37.0 °F 28.9 °F 23.0 °F 57% 29.91 in 10.0 mi South 12.7 mph - N/A   Clear
7:56 AM 39.0 °F 29.9 °F 24.1 °F 55% 29.89 in 10.0 mi South 17.3 mph - N/A   Partly Cloudy
8:56 AM 43.0 °F 34.2 °F 25.0 °F 49% 29.86 in 10.0 mi South 20.7 mph 31.1 mph N/A   Clear
9:56 AM 46.0 °F 38.3 °F 26.1 °F 46% 29.83 in 10.0 mi South 20.7 mph 27.6 mph N/A   Clear
10:56 AM 52.0 °F - 27.0 °F 38% 29.78 in 10.0 mi South 20.7 mph - N/A   Clear
11:56 AM 57.9 °F - 28.9 °F 33% 29.74 in 10.0 mi South 17.3 mph - N/A   Clear
12:56 PM 64.0 °F - 30.0 °F 28% 29.70 in 10.0 mi South 15.0 mph - N/A   Clear
1:56 PM 64.9 °F - 30.9 °F 28% 29.68 in 10.0 mi SSW 10.4 mph - N/A   Clear
2:56 PM 64.9 °F - 33.1 °F 31% 29.67 in 10.0 mi SSW 10.4 mph - N/A   Clear
3:56 PM 59.0 °F - 34.0 °F 39% 29.68 in 10.0 mi SSW 8.1 mph - N/A   Clear
4:56 PM 50.0 °F - 33.1 °F 52% 29.69 in 10.0 mi South 8.1 mph - N/A   Clear
5:56 PM 48.9 °F - 32.0 °F 52% 29.70 in 10.0 mi South 10.4 mph - N/A   Clear
6:56 PM 46.0 °F 41.4 °F 32.0 °F 58% 29.70 in 10.0 mi SSW 9.2 mph - N/A   Clear
7:56 PM 44.1 °F 40.8 °F 30.9 °F 60% 29.72 in 5.0 mi West 5.8 mph - N/A   Haze
8:56 PM 48.0 °F - 36.0 °F 63% 29.78 in 10.0 mi NW 10.4 mph - N/A   Clear
9:56 PM 45.0 °F 40.1 °F 35.1 °F 68% 29.78 in 10.0 mi NW 9.2 mph - N/A   Clear
10:56 PM 41.0 °F 35.8 °F 35.1 °F 79% 29.80 in 10.0 mi NW 8.1 mph - N/A   Partly Cloudy
11:56 PM 43.0 °F 36.4 °F 36.0 °F 76% 29.82 in 10.0 mi WNW 12.7 mph - N/A   Clear